Temp
17 16 17 18 19 19 21 21 21 23 24 24 25 25 26 27 27 25 26 27 28 28 28 28 28 30 31 31 30 30 29 28 25 22 23 22 22 22 22 22 22 22 21 21
16 16 18 19 20 19 19 19 20 21 24 24 24 25 26 27 28 28 28 27 27 27 25 25 27 30 31 33 32 30 28 27 24 23 23 22 22 22 22 22 22 21 21 21
15 17 19 19 19 19 19 19 20 20 22 24 23 23 24 25 25 26 25 26 25 24 24 25 25 26 26 27 29 29 27 24 23 23 22 23 23 21 21 21 21 21 21 21
16 18 18 18 18 19 18 21 21 21 21 20 24 22 24 25 26 26 26 25 25 27 24 24 25 23 23 25 25 24 23 22 22 22 23 22 21 21 22 22 21 21 20 20
16 17 17 18 19 20 19 21 21 22 20 20 22 20 24 24 25 26 26 25 24 24 25 24 24 21 22 23 22 22 21 21 22 23 23 23 22 22 23 22 21 20 20 20
17 19 19 18 19 20 21 21 21 21 19 18 21 21 22 24 25 25 25 26 26 25 24 23 20 20 19 21 21 21 21 21 22 22 22 22 22 22 22 21 20 20 20 19
16 17 19 20 18 19 19 18 16 16 17 19 22 21 23 23 24 26 26 26 27 24 22 19 18 18 18 19 19 20 21 21 22 22 22 22 22 22 21 20 20 19 19 19
15 15 18 19 18 17 17 16 15 16 16 19 23 20 21 25 27 28 28 27 23 20 19 18 18 18 18 18 19 20 20 20 21 21 21 22 21 21 20 20 20 20 19 19
13 15 17 18 18 18 17 17 19 18 20 18 20 22 23 25 26 27 27 23 20 19 18 18 18 18 18 18 19 20 20 21 21 21 21 21 21 20 20 19 19 19 19 18
14 13 16 17 18 18 17 19 17 16 17 17 19 21 22 25 25 26 25 22 19 19 19 18 18 18 18 18 19 20 21 21 21 21 21 20 20 20 19 19 19 19 18 18
13 12 14 15 16 16 16 17 17 17 17 18 18 19 22 23 25 26 23 22 20 20 19 19 18 18 18 19 19 20 20 20 20 21 20 20 20 20 19 19 19 18 18 19
12 10 10 13 16 17 16 15 15 14 16 18 19 21 25 24 25 25 23 22 21 20 19 19 19 18 19 18 19 20 20 21 21 21 21 20 20 19 19 19 18 18 19 18
11 9 9 11 14 15 15 15 15 14 16 18 20 20 26 24 26 24 23 22 21 20 20 19 19 19 19 18 19 20 20 21 21 21 20 20 20 19 19 19 19 19 19 19
11 9 10 8 13 13 13 14 15 14 13 18 20 22 24 25 26 24 23 22 22 21 21 20 20 19 19 19 19 19 20 21 21 21 21 21 19 19 19 19 19 19 19 19
10 9 11 11 12 13 14 14 15 14 14 14 19 20 23 24 24 23 23 23 22 21 21 21 20 20 19 19 19 20 21 21 21 20 21 20 19 19 19 19 19 19 20 20
10 9 11 11 13 13 14 15 15 16 16 15 16 17 21 22 23 23 24 23 22 22 22 22 21 21 20 20 20 20 21 21 21 20 19 19 19 19 19 19 19 19 20 20
9 9 11 11 12 15 13 14 15 16 17 17 16 19 22 21 20 19 24 24 23 23 23 22 22 21 21 21 21 21 21 22 21 20 20 20 19 19 20 19 20 20 20 19
11 10 11 10 10 12 15 14 15 18 19 18 18 19 21 21 20 19 18 24 24 24 23 23 22 21 21 21 21 22 22 21 20 20 19 19 20 20 20 20 20 19 19 19
12 10 10 11 10 14 15 13 13 14 16 17 17 21 20 19 20 19 19 20 23 24 24 23 23 22 21 21 22 21 21 21 20 20 19 20 20 20 20 20 19 19 19 18
13 12 11 11 12 12 12 11 13 13 15 16 16 18 19 19 18 18 18 20 22 22 22 23 23 22 21 21 22 21 20 20 21 21 20 21 20 20 20 20 19 19 19 18
10 11 11 11 9 12 9 10 11 15 16 14 16 16 18 18 18 18 18 21 22 23 22 23 22 22 22 22 22 21 21 20 22 21 21 21 21 20 21 20 19 19 18 18
10 10 11 11 12 12 10 11 14 13 13 13 14 16 17 17 19 20 19 20 20 21 23 23 23 22 21 22 22 21 21 24 22 21 21 21 21 20 20 20 19 18 18 17
10 9 10 10 10 8 9 11 11 11 11 12 13 16 18 17 17 17 19 19 18 19 23 23 21 21 21 22 22 21 24 23 22 21 21 21 20 20 20 19 19 17 17 16
10 9 8 9 11 10 10 11 11 11 12 11 14 18 18 18 17 17 19 19 19 20 20 21 21 20 21 22 23 24 25 23 21 20 20 21 20 20 20 19 19 18 17 16
10 10 10 10 11 11 11 11 11 12 13 13 18 18 17 17 17 17 17 18 20 21 20 21 21 20 21 22 23 25 25 23 21 20 20 19 20 20 19 19 18 18 18 18
10 11 10 10 11 11 11 12 12 12 12 14 17 18 17 17 17 17 17 17 17 19 20 20 20 20 21 22 23 25 24 24 21 19 18 19 19 20 20 19 19 18 18 18
Height
743 754 743 727 742 744 738 741 739 732 727 733 723 713 707 701 700 702 696 689 681 677 668 666 665 667 669 668 670 675 675 678 681 686 690 697 700 707 713 718 724 730 735 738
746 740 733 736 739 742 744 746 741 737 725 724 723 712 699 693 691 690 685 681 677 673 667 663 661 661 660 660 662 665 668 670 673 679 687 693 699 707 712 718 723 728 732 736
745 737 734 739 741 741 737 743 744 746 732 717 728 716 713 689 685 683 679 671 670 666 662 660 656 653 653 656 658 660 663 667 672 675 686 695 702 709 714 718 720 725 730 734
736 731 735 736 737 736 741 732 733 738 744 748 725 736 705 689 680 677 674 671 663 654 654 653 649 649 649 651 657 659 662 667 676 678 683 691 698 705 710 715 719 725 730 732
732 729 733 735 731 726 730 724 728 730 737 741 733 748 666 685 682 674 666 659 656 651 648 646 644 644 646 649 654 659 665 671 678 680 685 693 700 706 710 714 720 725 728 731
723 720 722 724 720 719 718 722 725 729 740 750 722 732 689 685 674 667 656 651 647 645 643 640 639 641 648 650 654 662 667 674 679 682 689 695 700 705 709 715 719 723 727 730
724 720 713 711 721 717 722 734 754 759 755 725 707 720 682 668 658 655 651 647 640 641 641 643 642 645 650 652 657 664 670 675 680 686 692 697 701 705 709 715 719 723 726 728
729 733 714 707 716 722 724 734 748 750 749 726 704 708 687 652 645 637 638 637 641 645 644 647 649 650 653 656 662 668 672 677 683 689 695 699 702 707 712 716 719 722 725 726
732 723 712 709 710 717 720 725 716 730 714 729 706 681 662 644 639 634 635 642 645 647 647 649 651 654 657 661 665 670 675 680 686 692 697 701 705 709 713 717 720 722 724 726
732 738 716 712 711 708 714 709 726 730 737 739 708 692 680 650 642 635 635 640 645 647 648 650 653 657 660 666 669 674 679 683 688 694 699 702 706 710 714 717 719 721 723 725
735 737 727 720 716 717 718 714 712 716 718 716 720 697 649 650 637 632 633 632 638 643 647 651 655 660 664 668 672 678 682 686 691 696 700 704 707 711 714 716 719 721 724 725
740 745 744 724 710 704 712 717 722 729 719 702 701 679 633 634 630 621 624 628 635 642 647 652 658 662 668 672 676 681 685 689 693 698 701 704 707 710 714 717 719 722 723 724
741 751 751 729 710 708 716 711 715 714 708 700 699 680 623 632 623 619 621 630 636 641 649 654 660 665 670 673 677 683 688 692 695 698 701 704 707 710 714 716 719 721 723 724
742 750 748 755 719 721 719 714 712 716 720 693 682 671 639 636 630 629 625 629 634 641 647 654 660 665 671 674 679 684 689 692 695 698 700 702 706 710 713 716 718 720 723 724
748 747 737 731 723 718 712 709 708 710 708 713 681 671 651 637 633 628 625 629 637 643 648 653 659 664 670 675 680 684 688 691 694 696 699 702 706 710 713 716 718 721 723 723
740 744 730 725 709 703 704 697 698 696 698 700 693 677 652 635 621 624 625 627 636 642 647 651 657 663 669 674 679 683 686 690 693 696 699 702 706 710 713 716 719 721 723 723
737 736 725 722 708 691 703 691 687 684 682 682 686 664 646 643 642 644 627 625 632 638 644 649 655 661 667 672 677 681 685 688 692 696 699 703 707 711 713 716 719 721 722 723
721 729 723 725 715 704 687 683 678 668 662 665 663 652 647 642 640 638 637 629 631 636 641 646 652 659 665 670 675 679 683 687 692 696 700 703 706 711 713 716 718 721 722 723
712 722 723 718 717 686 673 688 689 682 671 660 654 636 640 642 637 648 638 638 629 628 634 640 647 655 662 668 673 677 682 687 691 695 699 703 707 710 713 715 718 720 722 724
701 707 718 709 703 696 687 693 689 690 677 659 662 648 643 638 661 660 648 641 632 631 634 640 646 653 660 667 671 676 681 686 690 694 698 703 706 709 712 715 718 720 721 723
710 707 706 711 720 692 700 696 689 682 679 670 658 654 648 646 649 650 645 634 632 631 633 640 646 651 658 665 670 674 679 684 688 692 697 702 706 709 712 715 717 719 720 722
712 708 697 700 697 691 694 684 672 687 677 672 666 656 651 647 646 647 643 637 633 631 633 639 646 652 658 665 669 673 677 681 687 691 696 701 704 708 711 714 717 719 721 723
713 720 713 711 709 709 698 686 687 686 687 676 674 664 651 662 658 650 644 641 638 635 634 639 644 653 659 663 667 671 674 679 685 690 695 700 704 708 711 714 717 720 723 725
720 719 723 718 707 703 695 692 693 689 691 683 674 653 649 654 655 656 648 642 640 639 639 640 645 653 659 663 667 670 673 678 683 689 694 699 703 707 711 715 717 720 722 724
721 719 716 712 702 699 699 698 696 682 675 669 648 650 653 654 658 658 651 650 648 645 643 644 648 653 656 661 666 669 673 677 683 687 692 698 703 707 711 715 717 719 721 722
720 718 721 717 709 701 698 703 693 681 679 667 662 660 657 656 660 658 658 659 655 649 648 645 647 650 655 661 663 667 671 675 681 688 692 697 702 706 709 713 717 720 722 723
Wind_Speed
4 4 18 27 16 8 10 11 10 5 10 11 22 24 21 17 16 12 13 17 19 19 17 21 24 22 18 17 19 20 24 31 32 32 31 30 31 29 29 26 27 24 28 28
4 19 12 9 6 10 14 16 19 6 9 15 18 28 24 23 22 19 21 20 17 15 9 10 15 20 19 22 24 21 26 31 35 31 30 26 32 31 30 25 21 22 25 25
11 6 8 15 12 16 16 19 12 8 12 22 9 19 8 15 11 10 10 15 10 12 11 10 10 19 16 18 21 23 27 29 31 32 29 24 27 25 19 21 20 24 24 22
10 11 14 14 16 18 19 12 13 16 13 13 8 19 22 14 22 16 12 11 12 14 9 10 12 7 16 19 20 22 23 27 27 30 33 33 22 20 19 21 20 24 23 19
11 9 4 14 17 15 19 10 16 13 8 15 16 6 25 10 16 17 15 14 11 11 11 11 10 9 19 25 25 24 25 26 30 30 30 30 27 21 20 18 19 21 18 13
14 11 14 12 12 11 6 9 15 12 2 8 14 11 9 14 15 8 9 9 11 11 10 8 4 15 18 27 28 29 30 30 29 26 27 27 25 20 19 18 21 19 16 12
7 13 11 12 12 10 4 1 3 2 5 16 12 10 21 9 8 15 16 15 14 8 4 7 11 12 14 20 26 29 31 29 26 25 24 23 21 21 24 24 23 19 15 13
5 5 6 2 1 7 7 9 5 7 4 4 12 9 7 16 20 26 21 18 4 5 6 7 7 9 15 20 23 26 29 28 28 26 24 22 22 22 21 19 18 17 13 8
5 3 6 9 6 4 4 10 5 6 15 1 5 8 9 19 24 21 19 8 8 8 9 11 10 10 16 17 24 28 29 30 28 28 25 21 19 19 18 16 15 12 8 7
4 4 4 6 6 4 7 5 5 3 7 6 5 6 8 7 11 12 12 10 8 8 11 11 11 11 16 21 27 29 29 30 28 25 21 21 19 17 14 11 11 8 9 11
3 2 4 4 4 6 3 1 3 3 4 8 3 6 11 11 13 18 8 14 16 14 13 12 11 13 18 22 25 27 28 27 26 23 21 20 17 13 12 10 11 12 12 10
2 1 3 8 11 12 4 6 5 3 6 5 2 12 17 8 12 12 14 16 13 13 12 13 12 12 17 18 24 26 25 25 25 22 21 20 19 17 15 12 12 11 11 11
3 2 4 9 2 0 4 3 2 4 5 16 8 8 12 3 12 5 18 15 15 14 15 14 13 12 11 17 20 24 25 25 25 21 18 19 17 17 13 13 13 12 9 10
2 3 5 5 5 7 6 9 6 1 3 11 16 15 25 16 13 3 13 16 17 16 17 14 13 12 13 18 19 23 26 26 24 22 20 18 19 16 14 13 10 11 10 7
3 5 6 12 16 17 14 15 10 9 8 4 6 14 17 14 11 14 16 17 18 17 17 15 14 13 11 16 19 25 28 26 24 20 21 20 17 14 15 14 11 10 9 6
8 4 4 16 18 18 18 14 14 13 12 11 18 21 18 13 1 12 18 20 18 18 17 16 16 15 13 17 20 25 27 25 22 20 19 21 17 16 16 12 13 10 9 7
8 4 2 7 14 8 6 13 11 5 8 4 7 6 14 6 8 5 13 18 19 18 17 17 17 15 15 21 23 25 26 24 22 21 20 21 20 17 14 14 11 9 7 9
6 4 3 5 9 5 3 11 9 13 11 9 12 18 13 3 6 7 8 10 18 18 17 16 15 14 22 24 27 30 28 24 22 21 20 24 20 18 15 13 12 11 10 9
11 4 2 3 3 4 3 8 7 6 5 4 11 9 9 5 7 6 6 5 12 18 17 16 22 23 24 27 31 30 28 26 24 20 22 22 20 19 16 15 15 12 11 11
2 9 7 2 4 3 2 12 13 9 3 6 13 7 3 7 4 2 4 7 4 8 9 14 23 24 26 25 32 28 26 25 21 21 25 25 23 20 17 14 13 10 10 10
2 2 10 8 3 4 6 17 23 6 1 18 14 13 6 7 4 5 7 2 3 4 12 21 24 24 26 31 32 25 28 24 25 26 29 26 23 20 17 14 12 9 8 11
3 3 2 2 2 2 12 15 5 5 8 13 15 9 4 10 6 1 1 3 7 7 15 23 19 20 26 32 30 23 24 25 25 26 31 28 25 23 20 17 13 11 11 13
2 3 3 4 2 6 14 10 13 11 12 12 14 12 14 10 5 5 7 7 8 7 11 20 21 19 23 31 31 23 29 24 29 29 31 29 25 23 20 17 15 16 16 17
2 4 1 3 3 7 15 14 12 12 12 17 18 8 15 13 9 8 12 12 11 9 4 13 19 17 17 27 31 34 29 23 32 30 30 30 27 23 19 17 17 18 18 17
1 2 5 4 7 5 9 10 13 15 17 19 12 16 15 15 12 10 13 14 12 11 13 14 14 16 19 27 31 32 29 25 29 31 31 30 28 25 22 18 20 19 18 20
3 2 2 2 6 4 6 8 8 14 17 24 8 14 14 16 14 13 13 11 10 13 20 10 13 19 22 26 31 31 31 27 31 24 26 27 29 25 23 20 16 15 16 19
Wind_Direction
240 193 221 217 225 275 269 262 253 244 199 218 241 262 258 250 252 258 265 269 261 261 252 258 259 257 240 217 212 224 208 208 202 191 178 182 183 190 198 189 186 189 191 203
222 232 247 274 269 229 244 265 264 301 276 216 243 251 263 265 262 256 259 260 255 248 257 255 243 227 219 220 222 214 208 203 200 186 181 170 166 167 170 176 183 190 202 195
216 227 246 246 252 248 242 234 261 265 296 292 300 281 247 261 257 255 256 253 250 242 249 255 243 225 219 209 209 202 203 198 189 182 171 163 156 152 155 163 168 188 194 194
254 244 248 261 234 234 249 251 241 248 261 266 217 280 259 262 267 262 245 248 251 266 249 246 240 214 196 189 188 185 182 179 175 168 162 154 154 158 167 172 177 176 185 188
226 281 263 228 242 234 250 255 232 252 238 248 248 274 267 208 250 252 253 245 251 253 255 256 245 195 184 167 161 160 162 160 162 158 163 164 167 167 178 186 182 176 175 198
232 219 247 250 260 259 290 231 243 260 224 254 228 220 275 237 240 245 241 270 262 261 264 250 172 140 138 142 140 148 150 153 156 157 162 168 171 174 165 169 164 166 177 195
280 246 228 236 255 264 240 143 233 230 197 234 183 218 240 270 249 242 249 250 258 261 218 147 132 132 128 127 133 141 147 148 146 149 154 155 154 166 164 160 159 163 179 205
213 258 192 20 41 227 187 171 183 193 200 277 240 241 240 236 257 256 252 253 163 146 119 116 115 119 124 126 129 135 137 142 146 140 135 131 132 142 146 156 167 178 189 204
7 228 341 324 318 112 318 216 194 276 277 301 233 268 275 258 266 262 252 168 176 153 135 128 116 117 122 122 133 138 134 142 139 131 131 129 133 138 140 147 161 172 189 184
332 304 256 309 347 246 191 258 163 215 217 240 255 252 236 252 284 277 251 174 153 134 130 128 126 126 120 132 140 143 138 137 136 136 131 127 127 130 136 145 154 167 167 162
348 208 285 338 227 229 351 226 198 173 195 219 299 255 244 250 267 279 198 165 153 150 146 136 132 127 129 136 141 143 140 139 140 139 137 138 136 139 144 148 159 165 165 179
314 265 275 250 248 262 244 253 172 205 250 249 210 265 260 271 282 269 163 155 144 147 137 132 132 132 137 136 144 147 146 147 147 149 152 158 155 149 153 160 163 166 174 191
337 312 308 310 268 207 224 111 6 270 231 245 216 257 263 340 328 326 148 148 145 134 136 135 135 141 145 144 147 154 157 156 158 164 161 153 157 155 162 163 164 171 184 207
337 217 226 243 305 332 282 290 305 352 269 245 236 264 259 280 305 113 141 143 142 141 142 142 144 145 150 149 153 160 166 166 169 174 162 163 163 165 166 166 166 179 192 219
181 235 251 270 269 270 252 263 269 254 256 258 287 271 290 274 270 185 158 143 140 145 148 148 149 149 150 150 157 166 171 171 179 174 167 164 162 165 165 170 167 164 193 203
185 243 259 290 275 247 239 231 237 241 264 260 264 278 269 339 212 146 160 147 147 152 153 154 152 153 157 161 164 172 177 177 183 174 164 158 157 159 169 173 171 185 204 200
179 211 261 274 315 188 227 236 237 197 190 198 253 254 309 38 359 344 156 151 153 157 160 159 160 160 164 170 169 175 179 176 177 163 163 156 158 165 171 168 174 192 183 175
213 182 216 280 271 210 96 31 0 187 216 212 268 251 259 218 147 65 355 163 154 162 165 162 162 162 168 172 175 176 173 170 161 157 160 163 161 167 167 168 178 174 178 177
201 169 263 257 244 289 92 27 1 18 258 292 323 152 118 45 62 15 16 310 172 169 168 166 164 164 166 170 175 164 165 166 160 161 167 169 163 170 172 181 180 179 181 174
139 189 200 271 287 243 85 310 321 311 252 308 337 358 325 106 98 250 253 256 92 131 150 160 161 159 160 169 168 155 160 164 162 163 170 166 169 176 177 173 171 183 196 186
107 89 221 226 246 277 16 310 294 207 333 316 326 334 317 76 151 217 253 340 356 136 156 155 155 159 165 166 161 159 164 165 174 170 169 171 174 175 173 169 178 181 185 191
1 281 236 220 243 286 313 289 84 329 319 334 327 315 76 25 342 263 343 28 27 18 150 153 151 156 160 165 162 162 171 178 171 171 169 173 177 178 174 169 167 175 168 158
352 357 313 1 40 280 276 16 7 356 352 311 317 283 96 66 18 360 38 47 26 12 147 150 148 151 165 166 169 166 178 175 169 168 171 175 172 164 166 166 168 166 168 163
340 32 333 236 30 26 12 354 357 341 340 304 278 78 70 74 51 34 37 36 41 27 87 141 145 155 168 174 174 177 178 170 167 166 170 173 171 167 169 175 176 172 174 173
261 326 326 315 352 349 8 353 333 341 331 340 6 50 58 57 46 37 37 28 33 35 31 159 157 165 175 177 179 178 181 169 163 164 166 167 171 171 169 174 184 188 194 194
328 335 34 351 282 339 319 262 357 9 339 334 359 43 46 53 42 34 34 21 22 31 25 52 164 164 176 183 181 179 185 173 165 161 163 167 172 174 173 177 187 204 211 211